| time (UTC) | temp F | wind direction | speed knots | gust knots | rain 1hr in | rain 24hr in | rain mn in | humidity % | barometer mb |
| 20260831124508 | 73 | 42 | 0.0 | 2.6 | 0.00 | 0.01 | 0.00 | 92 | 1017.9 |
| 20260831123006 | 72 | 42 | 0.0 | 0.9 | 0.00 | 0.01 | 0.00 | 92 | 1018.0 |
| 20260831121504 | 72 | 42 | 0.0 | 2.6 | 0.00 | 0.01 | 0.00 | 92 | 1017.8 |
| 20260831120004 | 72 | 42 | 0.0 | 1.7 | 0.00 | 0.01 | 0.00 | 92 | 1017.6 |
| 20260831114600 | 71 | 42 | 0.0 | 0.9 | 0.00 | 0.01 | 0.00 | 91 | 1017.6 |
| 20260831114503 | 71 | 42 | 0.0 | 0.0 | 0.00 | 0.01 | 0.00 | 91 | 1017.6 |
| 20260831113059 | 71 | 42 | 0.0 | 0.9 | 0.00 | 0.01 | 0.00 | 91 | 1017.6 |
| 20260831111606 | 71 | 42 | 0.0 | 0.9 | 0.00 | 0.01 | 0.00 | 91 | 1017.3 |
| 20260831110054 | 70 | 42 | 0.0 | 0.0 | 0.00 | 0.01 | 0.00 | 90 | 1017.2 |
| 20260831104558 | 70 | 42 | 0.0 | 0.0 | 0.00 | 0.01 | 0.00 | 90 | 1016.8 |
| 20260831103053 | 70 | 42 | 0.0 | 0.0 | 0.00 | 0.01 | 0.00 | 90 | 1016.7 |
| 20260831101552 | 70 | 42 | 0.0 | 0.0 | 0.00 | 0.01 | 0.00 | 90 | 1016.4 |
| 20260831100057 | 70 | 42 | 0.0 | 0.0 | 0.00 | 0.01 | 0.00 | 89 | 1016.5 |
| 20260831094551 | 70 | 42 | 0.0 | 0.0 | 0.00 | 0.01 | 0.00 | 89 | 1016.6 |
| 20260831093052 | 70 | 42 | 0.0 | 0.0 | 0.00 | 0.01 | 0.00 | 89 | 1016.5 |
| 20260831091549 | 70 | 42 | 0.0 | 0.0 | 0.00 | 0.01 | 0.00 | 89 | 1016.5 |
| 20260831090049 | 70 | 42 | 0.0 | 0.0 | 0.00 | 0.01 | 0.00 | 89 | 1016.6 |
| 20260831084554 | 71 | 42 | 0.0 | 0.0 | 0.00 | 0.01 | 0.00 | 89 | 1016.6 |
| 20260831083050 | 71 | 42 | 0.0 | 0.0 | 0.00 | 0.01 | 0.00 | 88 | 1016.5 |
| 20260831081546 | 71 | 42 | 0.0 | 0.0 | 0.00 | 0.01 | 0.00 | 88 | 1016.5 |
| 20260831080045 | 71 | 42 | 0.0 | 0.0 | 0.00 | 0.01 | 0.00 | 88 | 1016.4 |
| 20260831074545 | 71 | 42 | 0.0 | 0.0 | 0.00 | 0.01 | 0.00 | 88 | 1016.5 |
| 20260831073044 | 72 | 42 | 0.0 | 0.0 | 0.00 | 0.01 | 0.00 | 88 | 1016.5 |
| 20260831071542 | 72 | 42 | 0.0 | 0.0 | 0.00 | 0.01 | 0.00 | 87 | 1016.4 |
| 20260831070042 | 72 | 42 | 0.0 | 0.0 | 0.00 | 0.01 | 0.00 | 87 | 1016.3 |
| 20260831064540 | 72 | 42 | 0.0 | 0.0 | 0.00 | 0.01 | 0.00 | 87 | 1016.4 |
| 20260831063038 | 72 | 42 | 0.0 | 0.0 | 0.00 | 0.01 | 0.00 | 87 | 1016.5 |
| 20260831061540 | 73 | 42 | 0.0 | 0.0 | 0.00 | 0.01 | 0.00 | 87 | 1016.5 |
| 20260831060039 | 73 | 42 | 0.0 | 0.0 | 0.00 | 0.01 | 0.00 | 86 | 1016.7 |
| 20260831054534 | 73 | 42 | 0.0 | 0.0 | 0.00 | 0.01 | 0.00 | 86 | 1016.7 |
| 20260831053033 | 73 | 42 | 0.0 | 0.0 | 0.00 | 0.01 | 0.00 | 86 | 1016.8 |
| 20260831051531 | 73 | 42 | 0.0 | 0.0 | 0.00 | 0.01 | 0.00 | 86 | 1017.0 |
| 20260831050030 | 73 | 42 | 0.0 | 0.0 | 0.00 | 0.01 | 0.00 | 86 | 1017.0 |
| 20260831044529 | 74 | 42 | 0.0 | 0.0 | 0.00 | 0.01 | 0.01 | 86 | 1016.9 |
| 20260831043028 | 74 | 42 | 0.0 | 0.0 | 0.00 | 0.01 | 0.01 | 86 | 1017.0 |
| 20260831041528 | 74 | 42 | 0.0 | 0.0 | 0.00 | 0.01 | 0.01 | 86 | 1017.0 |
| 20260831040027 | 74 | 42 | 0.0 | 0.9 | 0.00 | 0.01 | 0.01 | 86 | 1017.1 |
| 20260831034527 | 75 | 42 | 0.0 | 0.0 | 0.00 | 0.01 | 0.01 | 86 | 1017.2 |
| 20260831033034 | 74 | 42 | 0.0 | 0.0 | 0.00 | 0.01 | 0.01 | 85 | 1017.6 |
| 20260831031525 | 74 | 40 | 0.0 | 0.0 | 0.00 | 0.01 | 0.01 | 84 | 1017.8 |
| 20260831030026 | 74 | 40 | 0.0 | 0.0 | 0.00 | 0.01 | 0.01 | 84 | 1017.8 |
| 20260831024525 | 74 | 40 | 0.0 | 0.0 | 0.00 | 0.01 | 0.01 | 84 | 1017.9 |
| 20260831023026 | 74 | 40 | 0.0 | 0.0 | 0.00 | 0.01 | 0.01 | 83 | 1018.0 |
| 20260831021524 | 74 | 40 | 0.0 | 0.0 | 0.00 | 0.01 | 0.01 | 82 | 1017.9 |
| 20260831020024 | 75 | 40 | 0.0 | 0.0 | 0.00 | 0.01 | 0.01 | 81 | 1017.9 |
| 20260831014523 | 75 | 40 | 0.0 | 0.0 | 0.00 | 0.01 | 0.01 | 81 | 1017.9 |
| 20260831013023 | 75 | 40 | 0.0 | 0.0 | 0.00 | 0.01 | 0.01 | 79 | 1017.8 |
| 20260831011522 | 75 | 40 | 0.0 | 0.0 | 0.00 | 0.01 | 0.01 | 79 | 1017.7 |
| 20260831010021 | 75 | 40 | 0.0 | 0.0 | 0.00 | 0.01 | 0.01 | 77 | 1017.7 |
| 20260831004521 | 76 | 40 | 0.0 | 0.0 | 0.00 | 0.01 | 0.01 | 77 | 1017.3 |
| 20260831003021 | 76 | 40 | 0.0 | 0.0 | 0.00 | 0.01 | 0.01 | 76 | 1017.2 |
| 20260831001520 | 76 | 40 | 0.0 | 0.0 | 0.01 | 0.01 | 0.01 | 76 | 1017.0 |
| 20260831000020 | 77 | 40 | 0.0 | 0.0 | 0.01 | 0.01 | 0.01 | 74 | 1017.0 |
| 20260830234520 | 78 | 40 | 0.0 | 0.0 | 0.01 | 0.01 | 0.01 | 71 | 1017.2 |
| 20260830233019 | 79 | 38 | 0.0 | 1.7 | 0.01 | 0.01 | 0.01 | 65 | 1017.3 |
| 20260830231518 | 81 | 45 | 2.6 | 7.8 | 0.00 | 0.00 | 0.00 | 60 | 1017.8 |
| 20260830230018 | 82 | 59 | 1.7 | 7.8 | 0.00 | 0.00 | 0.00 | 63 | 1017.7 |
| 20260830224517 | 83 | 161 | 0.0 | 0.0 | 0.00 | 0.00 | 0.00 | 64 | 1017.2 |
| 20260830223017 | 83 | 161 | 0.0 | 0.0 | 0.00 | 0.00 | 0.00 | 63 | 1016.9 |
| 20260830221516 | 83 | 161 | 0.0 | 0.0 | 0.00 | 0.00 | 0.00 | 63 | 1016.7 |
| 20260830220020 | 84 | 161 | 0.0 | 0.9 | 0.00 | 0.00 | 0.00 | 61 | 1016.7 |
| 20260830214515 | 84 | 161 | 0.0 | 2.6 | 0.00 | 0.00 | 0.00 | 60 | 1016.6 |
| 20260830213015 | 85 | 161 | 0.0 | 0.9 | 0.00 | 0.00 | 0.00 | 60 | 1016.7 |
| 20260830211514 | 85 | 161 | 0.0 | 2.6 | 0.00 | 0.00 | 0.00 | 58 | 1016.7 |
| 20260830210014 | 85 | 161 | 0.9 | 5.2 | 0.00 | 0.00 | 0.00 | 58 | 1016.6 |
| 20260830204512 | 86 | 160 | 0.0 | 7.0 | 0.00 | 0.00 | 0.00 | 58 | 1016.7 |
| 20260830203027 | 86 | 159 | 0.0 | 7.0 | 0.00 | 0.00 | 0.00 | 58 | 1016.7 |
| 20260830201511 | 86 | 160 | 0.0 | 1.7 | 0.00 | 0.00 | 0.00 | 59 | 1017.1 |
| 20260830200015 | 85 | 160 | 0.9 | 7.8 | 0.00 | 0.00 | 0.00 | 59 | 1017.1 |
| 20260830194507 | 85 | 158 | 0.0 | 2.6 | 0.00 | 0.00 | 0.00 | 59 | 1017.3 |
| 20260830193008 | 85 | 158 | 0.0 | 7.0 | 0.00 | 0.00 | 0.00 | 60 | 1017.4 |
| 20260830191505 | 85 | 157 | 0.0 | 4.3 | 0.00 | 0.00 | 0.00 | 60 | 1017.6 |
| 20260830184558 | 85 | 157 | 0.9 | 5.2 | 0.00 | 0.00 | 0.00 | 59 | 1018.5 |
| 20260830183056 | 85 | 157 | 0.9 | 6.1 | 0.00 | 0.00 | 0.00 | 59 | 1018.7 |
| 20260830181554 | 84 | 157 | 0.0 | 5.2 | 0.00 | 0.00 | 0.00 | 62 | 1018.7 |
| 20260830180054 | 84 | 157 | 0.0 | 5.2 | 0.00 | 0.00 | 0.00 | 64 | 1019.0 |
| 20260830174557 | 83 | 157 | 0.0 | 4.3 | 0.00 | 0.00 | 0.00 | 65 | 1019.4 |
| 20260830173105 | 83 | 156 | 0.9 | 7.0 | 0.00 | 0.00 | 0.00 | 63 | 1019.5 |
| 20260830171546 | 83 | 158 | 0.0 | 2.6 | 0.00 | 0.00 | 0.00 | 64 | 1019.7 |
| 20260830170043 | 81 | 158 | 0.0 | 2.6 | 0.00 | 0.00 | 0.00 | 68 | 1019.9 |
| 20260830164541 | 81 | 158 | 0.0 | 0.9 | 0.00 | 0.00 | 0.00 | 69 | 1020.1 |
| 20260830163041 | 79 | 158 | 0.0 | 1.7 | 0.00 | 0.00 | 0.00 | 71 | 1020.3 |
| 20260830161537 | 79 | 158 | 0.0 | 7.0 | 0.00 | 0.00 | 0.00 | 70 | 1020.5 |
| 20260830160036 | 81 | 158 | 0.0 | 6.1 | 0.00 | 0.00 | 0.00 | 69 | 1020.6 |
| 20260830154533 | 80 | 159 | 0.0 | 1.7 | 0.00 | 0.00 | 0.00 | 73 | 1020.7 |
| 20260830153033 | 78 | 159 | 0.0 | 4.3 | 0.00 | 0.00 | 0.00 | 74 | 1020.8 |
| 20260830151529 | 78 | 183 | 0.0 | 3.5 | 0.00 | 0.00 | 0.00 | 75 | 1020.8 |
| 20260830150033 | 78 | 184 | 0.0 | 4.3 | 0.00 | 0.00 | 0.00 | 78 | 1020.7 |
| 20260830144533 | 77 | 186 | 0.0 | 3.5 | 0.00 | 0.00 | 0.00 | 82 | 1020.5 |
| 20260830143034 | 76 | 192 | 0.0 | 2.6 | 0.00 | 0.00 | 0.00 | 86 | 1020.7 |
| 20260830141518 | 75 | 192 | 0.0 | 3.5 | 0.00 | 0.00 | 0.00 | 89 | 1020.8 |
| 20260830140014 | 74 | 204 | 0.0 | 3.5 | 0.00 | 0.00 | 0.00 | 91 | 1020.8 |
| 20260830134513 | 74 | 205 | 0.0 | 3.5 | 0.00 | 0.00 | 0.00 | 92 | 1020.7 |
| 20260830133007 | 73 | 205 | 0.0 | 0.9 | 0.00 | 0.00 | 0.00 | 92 | 1020.9 |
| 20260830131502 | 72 | 206 | 0.0 | 2.6 | 0.00 | 0.00 | 0.00 | 93 | 1021.0 |
| 20260830130101 | 72 | 206 | 0.0 | 3.5 | 0.00 | 0.00 | 0.00 | 93 | 1021.1 |